Change the Weather History Date:

Monday, October 1, 2012

  Actual Average Record
Temperature  
Mean Temperature 52 °F -  
Max Temperature 65 °F 61 °F 82 °F (1963)
Min Temperature 37 °F 40 °F 21 °F (1974)
Degree Days  
Heating Degree Days 14    
Growing Degree Days 2 (Base 50)    
Moisture  
Dew Point 36 °F    
Average Humidity 53    
Maximum Humidity 81    
Minimum Humidity 26    
Precipitation  
Precipitation 0.00 in - - ()
Sea Level Pressure  
Sea Level Pressure 29.98 in    
Wind  
Wind Speed 11 mph (NW)    
Max Wind Speed 18 mph    
Max Gust Speed 25 mph    
Visibility 10 miles    
Events      
Averages and records for this station are not official NWS values.
T = Trace of Precipitation, MM = Missing Value Source: NWS Daily Summary

Daily Weather History Graph

Daily Weather History Graph

Search for Another Location

Airport or City:

Trip Planner

Search our weather history database for the weather conditions in past years. The results will help you decide how hot, cold, wet, or windy it might be!

Date:

Astronomy

Oct. 01, 2012 Rise Set
Actual Time 7:19 AM CDT 6:58 PM CDT
Civil Twilight 6:48 AM CDT 7:28 PM CDT
Nautical Twilight 6:13 AM CDT 8:04 PM CDT
Astronomical Twilight 5:36 AM CDT 8:40 PM CDT
Moon 7:24 PM CDT (10/1) 9:00 AM CDT (10/1)
Length of Visible Light 12h 39m
Length of Day
11h 38m
Full, 98% of the Moon is Illuminated
Oct 1
Full
Oct 8
Last Quarter
Oct 15
New
Oct 21
First Quarter
Oct 29
Full

Hourly Weather History & Observations

Time (CDT) Temp. Windchill Dew Point Humidity Pressure Visibility Wind Dir Wind Speed Gust Speed Precip Events Conditions
12:15 AM 61.5 °F - 47.3 °F 60% 29.89 in 10.0 mi NW 12.7 mph - N/A   Clear
12:35 AM 60.8 °F - 47.3 °F 61% 29.90 in 10.0 mi NW 11.5 mph 16.1 mph N/A   Scattered Clouds
1:15 AM 59.7 °F - 44.2 °F 57% 29.90 in 10.0 mi NNW 12.7 mph 19.6 mph N/A   Scattered Clouds
1:35 AM 58.8 °F - 42.6 °F 55% 29.91 in 10.0 mi NNW 13.8 mph 18.4 mph N/A   Scattered Clouds
1:55 AM 58.5 °F - 42.3 °F 55% 29.92 in 10.0 mi NNW 12.7 mph - N/A   Scattered Clouds
2:35 AM 56.7 °F - 41.9 °F 58% 29.91 in 10.0 mi NW 12.7 mph - N/A   Clear
2:55 AM 55.8 °F - 41.9 °F 60% 29.92 in 10.0 mi NW 10.4 mph - N/A   Clear
3:15 AM 54.5 °F - 41.9 °F 62% 29.92 in 10.0 mi NW 11.5 mph - N/A   Clear
3:35 AM 54.0 °F - 42.3 °F 65% 29.92 in 10.0 mi NW 12.7 mph - N/A   Clear
4:15 AM 53.1 °F - 42.8 °F 68% 29.93 in 10.0 mi NW 11.5 mph - N/A   Clear
4:35 AM 52.3 °F - 42.8 °F 70% 29.93 in 10.0 mi NW 10.4 mph - N/A   Clear
4:55 AM 51.6 °F - 42.8 °F 72% 29.93 in 10.0 mi NW 10.4 mph - N/A   Clear
5:15 AM 50.7 °F - 42.8 °F 74% 29.93 in 10.0 mi NW 11.5 mph - N/A   Clear
5:35 AM 50.2 °F - 42.8 °F 76% 29.94 in 10.0 mi WNW 10.4 mph - N/A   Clear
5:55 AM 48.9 °F - 42.6 °F 79% 29.95 in 10.0 mi WNW 10.4 mph - N/A   Clear
6:15 AM 48.4 °F - 42.8 °F 81% 29.96 in 10.0 mi NW 10.4 mph - N/A   Clear
6:35 AM 47.8 °F - 42.3 °F 81% 29.96 in 10.0 mi NW 9.2 mph - N/A   Clear
7:15 AM 46.8 °F - 41.4 °F 81% 29.97 in 10.0 mi WNW 9.2 mph - N/A   Clear
7:35 AM 46.6 °F - 41.0 °F 81% 29.98 in 10.0 mi WNW 9.2 mph - N/A   Clear
8:15 AM 48.7 °F - 41.2 °F 75% 29.99 in 10.0 mi NW 10.4 mph - N/A   Clear
8:35 AM 49.3 °F - 41.2 °F 74% 30.00 in 10.0 mi NW 12.7 mph 18.4 mph N/A   Clear
8:55 AM 50.0 °F - 41.0 °F 71% 30.00 in 10.0 mi NW 13.8 mph 17.3 mph N/A   Clear
9:15 AM 50.5 °F - 40.8 °F 69% 30.01 in 10.0 mi NW 12.7 mph - N/A   Clear
9:35 AM 50.7 °F - 40.8 °F 69% 30.01 in 10.0 mi NW 10.4 mph - N/A   Clear
9:55 AM 52.5 °F - 41.0 °F 65% 30.01 in 10.0 mi NW 13.8 mph 17.3 mph N/A   Clear
10:15 AM 54.5 °F - 41.0 °F 60% 30.01 in 10.0 mi NW 13.8 mph 19.6 mph N/A   Clear
10:35 AM 56.8 °F - 41.2 °F 56% 30.02 in 10.0 mi NW 11.5 mph - N/A   Clear
10:55 AM 58.3 °F - 41.2 °F 53% 30.02 in 10.0 mi NW 13.8 mph 20.7 mph N/A   Clear
11:15 AM 59.7 °F - 41.2 °F 50% 30.02 in 10.0 mi NNW 16.1 mph 19.6 mph N/A   Clear
11:35 AM 61.0 °F - 41.2 °F 48% 30.02 in 10.0 mi NNW 13.8 mph 20.7 mph N/A   Clear
11:55 AM 61.9 °F - 41.2 °F 47% 30.02 in 10.0 mi NNW 17.3 mph 21.9 mph N/A   Scattered Clouds
12:15 PM 61.9 °F - 39.7 °F 44% 30.02 in 10.0 mi NNW 13.8 mph 25.3 mph N/A   Scattered Clouds
12:35 PM 63.1 °F - 36.3 °F 37% 30.02 in 7.0 mi NW 18.4 mph 24.2 mph N/A   Clear
1:15 PM 63.5 °F - 34.2 °F 33% 30.01 in 7.0 mi NW 16.1 mph 23.0 mph N/A   Clear
1:35 PM 64.0 °F - 33.3 °F 32% 30.00 in 10.0 mi NNW 12.7 mph 24.2 mph N/A   Clear
1:55 PM 64.2 °F - 32.2 °F 30% 30.00 in 10.0 mi NNW 13.8 mph 20.7 mph N/A   Clear
2:15 PM 64.6 °F - 32.2 °F 30% 29.99 in 10.0 mi NW 11.5 mph 17.3 mph N/A   Clear
3:15 PM 65.5 °F - 30.4 °F 27% 29.99 in 10.0 mi NNW 16.1 mph 20.7 mph N/A   Clear
3:35 PM 65.5 °F - 30.4 °F 27% 29.98 in 10.0 mi NNW 15.0 mph 19.6 mph N/A   Clear
3:55 PM 65.5 °F - 29.8 °F 26% 29.98 in 10.0 mi NW 12.7 mph - N/A   Clear
4:15 PM 65.3 °F - 29.7 °F 26% 29.98 in 10.0 mi North 15.0 mph - N/A   Clear
4:35 PM 65.3 °F - 29.5 °F 26% 29.99 in 10.0 mi NW 13.8 mph 20.7 mph N/A   Clear
4:55 PM 64.8 °F - 29.5 °F 27% 29.98 in 7.0 mi NW 13.8 mph 18.4 mph N/A   Clear
5:15 PM 64.4 °F - 30.2 °F 28% 29.98 in 10.0 mi NNW 11.5 mph - N/A   Clear
5:35 PM 64.2 °F - 30.0 °F 28% 29.99 in 10.0 mi NNW 11.5 mph - N/A   Clear
5:55 PM 63.5 °F - 29.8 °F 28% 29.98 in 10.0 mi NNW 6.9 mph - N/A   Clear
6:15 PM 62.4 °F - 29.3 °F 29% 29.99 in 10.0 mi NNW 10.4 mph - N/A   Clear
6:35 PM 61.2 °F - 29.3 °F 30% 29.99 in 10.0 mi NNW 5.8 mph - N/A   Clear
6:55 PM 59.2 °F - 29.7 °F 33% 29.99 in 10.0 mi NNW 4.6 mph - N/A   Clear
7:15 PM 56.1 °F - 29.5 °F 36% 29.99 in 10.0 mi NW 3.5 mph - N/A   Clear
7:35 PM 54.5 °F - 29.3 °F 38% 29.99 in 10.0 mi WNW 4.6 mph - N/A   Clear
7:55 PM 52.0 °F - 29.1 °F 41% 29.99 in 10.0 mi NW 4.6 mph - N/A   Clear
8:15 PM 49.8 °F - 28.9 °F 45% 29.99 in 10.0 mi West 4.6 mph - N/A   Clear
8:35 PM 47.8 °F - 28.4 °F 47% 29.99 in 10.0 mi West 3.5 mph - N/A   Clear
8:55 PM 48.6 °F - 28.8 °F 46% 29.99 in 10.0 mi Calm Calm - N/A   Clear
9:15 PM 45.7 °F - 27.9 °F 50% 29.99 in 10.0 mi Calm Calm - N/A   Clear
9:35 PM 43.3 °F 41.7 °F 27.9 °F 54% 30.00 in 10.0 mi WSW 3.5 mph - N/A   Clear
9:55 PM 41.4 °F - 27.7 °F 58% 30.00 in 10.0 mi Calm Calm - N/A   Clear
10:15 PM 42.4 °F - 28.4 °F 58% 30.00 in 10.0 mi Calm Calm - N/A   Clear
10:35 PM 41.7 °F - 28.2 °F 59% 29.99 in 10.0 mi Calm Calm - N/A   Clear
10:55 PM 39.4 °F 36.1 °F 28.0 °F 64% 29.99 in 10.0 mi ENE 4.6 mph - N/A   Clear
11:15 PM 38.5 °F - 29.3 °F 70% 29.99 in 10.0 mi Calm Calm - N/A   Clear
11:35 PM 40.1 °F - 29.5 °F 66% 29.99 in 10.0 mi Calm Calm - N/A   Clear
11:55 PM 37.4 °F - 27.5 °F 67% 29.98 in 10.0 mi Calm Calm - N/A   Clear